Total_Precipitation_Accumulation
0.11 0.12 0.14 0.18 0.20 0.21 0.27 0.32 0.38 0.53 0.67 0.75 0.87 1.06 1.23 1.38 1.52 1.64 1.53 1.37 1.31 1.46 1.53 1.44 1.41 1.29 1.07 0.95 0.84 0.74 0.66 0.42 0.20 0.21 0.20 0.10 0.05 0.06 0.05 0.04 0.03 0.04 0.04
0.07 0.06 0.06 0.09 0.10 0.11 0.15 0.22 0.28 0.40 0.52 0.65 0.87 1.10 1.38 1.44 1.51 1.65 1.71 1.64 1.57 1.69 1.69 1.75 1.74 1.68 1.55 1.40 1.18 1.09 1.10 0.82 0.46 0.46 0.60 0.40 0.24 0.12 0.08 0.07 0.06 0.07 0.06
0.06 0.04 0.04 0.05 0.07 0.07 0.09 0.16 0.26 0.41 0.62 0.84 1.12 1.41 1.63 1.69 1.71 1.64 1.73 1.81 1.86 1.91 1.91 1.96 1.96 1.88 1.67 1.55 1.54 1.49 1.65 1.37 0.90 0.66 0.73 0.62 0.50 0.32 0.14 0.10 0.11 0.10 0.09
0.08 0.06 0.06 0.07 0.08 0.10 0.14 0.23 0.37 0.58 0.84 1.18 1.49 1.71 1.93 2.00 1.83 1.81 1.85 1.85 1.80 1.84 1.94 1.94 1.90 1.84 1.72 1.72 1.71 1.60 1.78 1.81 1.39 1.02 0.74 0.54 0.49 0.49 0.37 0.21 0.17 0.16 0.12
0.14 0.12 0.13 0.15 0.18 0.24 0.31 0.45 0.68 0.96 1.24 1.45 1.63 1.84 1.95 1.93 1.89 1.85 1.85 1.77 1.74 1.72 1.73 1.73 1.78 1.78 1.79 1.80 1.89 1.87 1.99 1.89 1.72 1.38 1.16 1.00 0.78 0.56 0.54 0.50 0.33 0.24 0.18
0.19 0.20 0.22 0.29 0.36 0.40 0.53 0.71 0.88 1.16 1.32 1.42 1.55 1.72 1.85 1.88 1.88 1.84 1.85 1.83 1.78 1.68 1.61 1.60 1.63 1.72 1.82 1.84 1.87 1.90 2.03 2.04 1.96 1.69 1.39 1.24 1.10 0.95 0.87 0.69 0.54 0.42 0.27
0.27 0.28 0.38 0.52 0.60 0.64 0.72 0.86 0.94 1.10 1.19 1.23 1.31 1.46 1.52 1.55 1.58 1.56 1.51 1.45 1.39 1.37 1.39 1.48 1.55 1.66 1.76 1.78 1.81 1.87 1.84 1.89 2.02 1.92 1.65 1.38 1.14 1.07 0.98 0.89 0.69 0.55 0.35
0.42 0.54 0.67 0.77 0.84 0.84 0.81 0.82 0.94 0.99 0.96 0.97 0.99 1.10 1.17 1.21 1.24 1.22 1.18 1.19 1.21 1.23 1.20 1.24 1.33 1.51 1.68 1.73 1.71 1.66 1.62 1.64 1.76 1.73 1.65 1.54 1.27 1.13 1.00 0.97 1.01 0.86 0.67
0.66 0.89 1.07 1.18 1.26 1.17 0.98 0.83 0.83 0.82 0.79 0.83 0.86 0.91 0.96 0.98 0.98 0.99 0.95 1.02 1.04 1.00 0.94 0.97 1.03 1.11 1.31 1.52 1.61 1.49 1.39 1.33 1.40 1.45 1.47 1.50 1.44 1.28 1.13 1.11 1.08 1.03 0.87
1.09 1.34 1.59 1.70 1.68 1.49 1.22 0.94 0.78 0.74 0.69 0.71 0.74 0.79 0.81 0.79 0.75 0.79 0.75 0.76 0.80 0.81 0.80 0.78 0.81 0.90 1.00 1.17 1.34 1.35 1.28 1.22 1.21 1.30 1.38 1.44 1.47 1.45 1.23 1.11 1.06 0.95 0.86
1.52 1.66 1.81 1.86 1.60 1.42 1.17 0.92 0.77 0.78 0.78 0.77 0.76 0.75 0.71 0.66 0.62 0.62 0.60 0.57 0.59 0.60 0.64 0.72 0.74 0.80 0.88 1.02 1.21 1.31 1.29 1.17 1.15 1.16 1.20 1.30 1.34 1.50 1.43 1.28 1.13 1.00 0.89
1.27 1.35 1.41 1.36 1.32 1.27 1.10 0.94 0.85 0.85 0.88 0.88 0.86 0.77 0.67 0.62 0.61 0.59 0.51 0.48 0.45 0.44 0.52 0.57 0.60 0.63 0.66 0.78 0.94 1.07 1.12 1.08 0.99 0.95 1.00 1.15 1.29 1.48 1.56 1.51 1.35 1.22 1.08
1.10 1.10 1.10 1.11 1.14 1.11 0.99 0.97 0.94 0.94 0.94 0.92 0.82 0.74 0.67 0.57 0.53 0.47 0.43 0.47 0.46 0.48 0.54 0.59 0.63 0.64 0.64 0.63 0.66 0.73 0.82 0.84 0.80 0.77 0.77 0.81 0.92 1.16 1.34 1.42 1.43 1.43 1.34
0.86 0.87 0.91 0.94 1.03 1.00 0.96 0.91 0.87 0.92 1.01 1.06 0.96 0.85 0.73 0.62 0.56 0.49 0.44 0.42 0.42 0.45 0.47 0.48 0.54 0.63 0.63 0.60 0.59 0.58 0.58 0.55 0.56 0.60 0.67 0.71 0.73 0.85 0.96 1.07 1.24 1.45 1.44
0.55 0.60 0.64 0.64 0.62 0.59 0.61 0.63 0.69 0.80 0.94 1.08 1.07 0.93 0.74 0.61 0.54 0.49 0.42 0.40 0.39 0.39 0.41 0.44 0.47 0.53 0.58 0.63 0.65 0.52 0.44 0.42 0.41 0.41 0.45 0.51 0.59 0.65 0.68 0.74 0.97 1.24 1.37
0.33 0.31 0.32 0.33 0.34 0.31 0.28 0.27 0.33 0.48 0.73 0.99 0.97 0.75 0.58 0.46 0.41 0.41 0.39 0.35 0.33 0.36 0.40 0.40 0.42 0.51 0.52 0.61 0.58 0.43 0.38 0.39 0.41 0.41 0.37 0.36 0.39 0.42 0.44 0.50 0.60 0.78 0.98
0.20 0.20 0.20 0.20 0.20 0.19 0.18 0.19 0.26 0.38 0.54 0.64 0.60 0.51 0.40 0.38 0.41 0.42 0.36 0.34 0.33 0.34 0.36 0.37 0.38 0.42 0.52 0.51 0.36 0.34 0.33 0.39 0.42 0.43 0.44 0.40 0.34 0.37 0.36 0.41 0.44 0.44 0.50
0.11 0.11 0.12 0.13 0.15 0.16 0.19 0.22 0.27 0.34 0.38 0.40 0.40 0.34 0.30 0.31 0.34 0.35 0.34 0.39 0.44 0.41 0.41 0.43 0.43 0.42 0.46 0.40 0.29 0.30 0.32 0.38 0.42 0.46 0.50 0.55 0.49 0.46 0.50 0.46 0.47 0.43 0.40
0.04 0.03 0.03 0.03 0.05 0.05 0.06 0.08 0.10 0.12 0.12 0.12 0.13 0.12 0.12 0.13 0.14 0.16 0.22 0.33 0.40 0.42 0.44 0.47 0.47 0.42 0.38 0.35 0.27 0.27 0.34 0.41 0.46 0.45 0.48 0.54 0.54 0.63 0.63 0.58 0.69 0.65 0.53
0.01 0.00 0.00 0.00 0.00 0.00 0.00 0.00 0.00 0.01 0.01 0.01 0.01 0.01 0.02 0.02 0.03 0.06 0.08 0.15 0.19 0.24 0.32 0.34 0.37 0.40 0.38 0.44 0.31 0.30 0.35 0.41 0.49 0.50 0.50 0.63 0.62 0.64 0.60 0.52 0.70 0.71 0.60
0.00 0.00 0.00 0.00 0.00 0.00 0.00 0.00 0.00 0.00 0.00 0.00 0.00 0.00 0.00 0.00 0.01 0.02 0.03 0.06 0.08 0.12 0.16 0.21 0.27 0.34 0.39 0.46 0.42 0.44 0.45 0.46 0.54 0.55 0.53 0.50 0.58 0.45 0.46 0.45 0.47 0.64 0.59
0.00 0.00 0.00 0.00 0.00 0.00 0.00 0.00 0.00 0.00 0.00 0.00 0.00 0.00 0.00 0.00 0.01 0.01 0.02 0.02 0.03 0.06 0.09 0.11 0.15 0.21 0.27 0.33 0.38 0.37 0.40 0.42 0.51 0.56 0.48 0.48 0.54 0.39 0.36 0.36 0.42 0.51 0.54
0.00 0.00 0.00 0.00 0.00 0.00 0.00 0.00 0.00 0.00 0.00 0.00 0.00 0.00 0.00 0.01 0.01 0.01 0.01 0.02 0.03 0.05 0.06 0.09 0.15 0.21 0.28 0.29 0.24 0.22 0.22 0.26 0.39 0.43 0.45 0.46 0.43 0.36 0.31 0.32 0.37 0.42 0.46
0.00 0.00 0.00 0.00 0.00 0.00 0.00 0.00 0.00 0.00 0.00 0.00 0.00 0.00 0.01 0.01 0.01 0.02 0.03 0.03 0.04 0.05 0.09 0.13 0.18 0.23 0.26 0.27 0.25 0.26 0.27 0.25 0.30 0.31 0.31 0.33 0.34 0.37 0.35 0.32 0.35 0.39 0.44
0.00 0.00 0.00 0.00 0.00 0.00 0.00 0.00 0.00 0.00 0.00 0.00 0.00 0.00 0.00 0.01 0.01 0.01 0.01 0.02 0.03 0.04 0.10 0.17 0.21 0.21 0.21 0.15 0.14 0.24 0.34 0.40 0.45 0.51 0.45 0.44 0.42 0.40 0.36 0.34 0.33 0.36 0.38
0.00 0.00 0.00 0.00 0.00 0.00 0.00 0.00 0.00 0.00 0.00 0.00 0.00 0.00 0.00 0.01 0.01 0.01 0.01 0.01 0.02 0.05 0.07 0.07 0.09 0.10 0.09 0.09 0.10 0.16 0.26 0.34 0.44 0.59 0.62 0.63 0.63 0.58 0.49 0.40 0.32 0.27 0.27